When you browse on this site, cookies collect data to enhance your experience and personalize the content and advertising you see.
Visit our Privacy Policy to learn more. By continuing to use the site, you agree to this use of cookies and data.
  • In United Kingdom
  • List of Countries
  • For 7 days
  • Water Temperature
  • Weather Map
  • Weather Widgets
  • user-avatar
    Login

    Hourly Weather Yelsk

    Today, 23 August, Friday

    Time Temperature Precipitation Wind Pressure Humidity
    00:00 +16°C° 0 mm 2 mps 755 mmHg 88%
    01:00 +15°C° 0 mm 2 mps 756 mmHg 90%
    02:00 +15°C° 0 mm 2 mps 756 mmHg 91%
    03:00 +15°C° 0 mm 2 mps 756 mmHg 91%
    04:00 +14°C° 0 mm 2 mps 756 mmHg 92%
    05:00 +14°C° 0 mm 2 mps 755 mmHg 92%
    06:00 +15°C° 0 mm 2 mps 756 mmHg 87%
    07:00 +16°C° 0 mm 3 mps 756 mmHg 82%
    08:00 +17°C° 0 mm 3 mps 756 mmHg 73%
    09:00 +19°C° 0 mm 3 mps 756 mmHg 66%
    10:00 +20°C° 0 mm 3 mps 756 mmHg 60%
    11:00 +22°C° 0 mm 3 mps 756 mmHg 53%
    12:00 +24°C° 0 mm 3 mps 756 mmHg 49%
    13:00 +23°C° 0 mm 4 mps 756 mmHg 45%
    14:00 +25°C° 0 mm 4 mps 756 mmHg 42%
    15:00 +25°C° 0 mm 3 mps 755 mmHg 44%
    16:00 +25°C° 0 mm 3 mps 755 mmHg 46%
    17:00 +24°C° 0 mm 3 mps 755 mmHg 48%
    18:00 +21°C° 0 mm 3 mps 755 mmHg 55%
    19:00 +19°C° 0 mm 2 mps 755 mmHg 62%
    20:00 +17°C° 0 mm 2 mps 755 mmHg 69%
    21:00 +16°C° 0 mm 2 mps 755 mmHg 72%
    22:00 +15°C° 0 mm 2 mps 755 mmHg 76%
    23:00 +14°C° 0 mm 2 mps 755 mmHg 79%

    Tomorrow, 24 August, Saturday

    Time Temperature Precipitation Wind Pressure Humidity
    00:00 +14°C° 0 mm 2 mps 755 mmHg 82%
    01:00 +14°C° 0 mm 2 mps 755 mmHg 85%
    02:00 +13°C° 0 mm 2 mps 756 mmHg 87%
    03:00 +13°C° 0 mm 1 mps 755 mmHg 89%
    04:00 +12°C° 0 mm 1 mps 755 mmHg 91%
    05:00 +12°C° 0 mm 1 mps 755 mmHg 92%
    06:00 +14°C° 0 mm 1 mps 755 mmHg 85%
    07:00 +16°C° 0 mm 2 mps 755 mmHg 77%
    08:00 +18°C° 0 mm 2 mps 755 mmHg 69%
    09:00 +20°C° 0 mm 2 mps 755 mmHg 61%
    10:00 +21°C° 0 mm 2 mps 755 mmHg 53%
    11:00 +24°C° 0 mm 2 mps 755 mmHg 45%
    12:00 +25°C° 0 mm 2 mps 755 mmHg 42%
    13:00 +26°C° 0 mm 2 mps 755 mmHg 38%
    14:00 +26°C° 0 mm 2 mps 755 mmHg 35%
    15:00 +26°C° 0 mm 2 mps 754 mmHg 37%
    16:00 +26°C° 0 mm 2 mps 754 mmHg 40%
    17:00 +25°C° 0 mm 2 mps 754 mmHg 43%
    18:00 +23°C° 0 mm 2 mps 754 mmHg 49%
    19:00 +20°C° 0 mm 2 mps 754 mmHg 56%
    20:00 +18°C° 0 mm 1 mps 754 mmHg 63%
    21:00 +16°C° 0 mm 1 mps 754 mmHg 66%
    22:00 +16°C° 0 mm 1 mps 754 mmHg 69%
    23:00 +15°C° 0 mm 1 mps 754 mmHg 72%

    Day after tomorrow, 25 August, Sunday

    Time Temperature Precipitation Wind Pressure Humidity
    00:00 +15°C° 0 mm 1 mps 754 mmHg 74%
    01:00 +14°C° 0 mm 1 mps 754 mmHg 76%
    02:00 +14°C° 0 mm 1 mps 754 mmHg 78%
    03:00 +13°C° 0 mm 1 mps 754 mmHg 79%
    04:00 +13°C° 0 mm 1 mps 754 mmHg 81%
    05:00 +13°C° 0 mm 1 mps 754 mmHg 82%
    06:00 +15°C° 0 mm 1 mps 754 mmHg 76%
    07:00 +18°C° 0 mm 1 mps 754 mmHg 70%
    08:00 +20°C° 0 mm 1 mps 754 mmHg 64%
    09:00 +22°C° 0 mm 1 mps 754 mmHg 58%
    10:00 +24°C° 0 mm 2 mps 754 mmHg 52%
    11:00 +25°C° 0 mm 2 mps 755 mmHg 47%
    12:00 +26°C° 0 mm 2 mps 754 mmHg 45%
    13:00 +27°C° 0 mm 2 mps 754 mmHg 43%
    14:00 +28°C° 0 mm 2 mps 754 mmHg 40%
    15:00 +27°C° 0 mm 2 mps 754 mmHg 44%
    16:00 +27°C° 0 mm 2 mps 754 mmHg 47%
    17:00 +27°C° 0 mm 2 mps 753 mmHg 50%
    18:00 +25°C° 0 mm 2 mps 753 mmHg 57%
    19:00 +23°C° 0 mm 2 mps 754 mmHg 65%
    20:00 +20°C° 0 mm 2 mps 754 mmHg 73%
    21:00 +19°C° 0 mm 2 mps 754 mmHg 77%
    22:00 +18°C° 0 mm 2 mps 754 mmHg 82%
    23:00 +18°C° 0 mm 2 mps 754 mmHg 86%

    26 August, Monday

    Time Temperature Precipitation Wind Pressure Humidity
    00:00 +17°C° 0 mm 2 mps 754 mmHg 87%
    01:00 +17°C° 0 mm 2 mps 754 mmHg 88%
    02:00 +16°C° 0 mm 2 mps 754 mmHg 89%
    03:00 +16°C° 0 mm 1 mps 754 mmHg 90%
    04:00 +15°C° 0 mm 1 mps 754 mmHg 91%
    05:00 +15°C° 0 mm 1 mps 754 mmHg 91%
    06:00 +18°C° 0 mm 1 mps 754 mmHg 84%
    07:00 +19°C° 0 mm 1 mps 754 mmHg 77%
    08:00 +20°C° 0 mm 2 mps 754 mmHg 70%
    09:00 +23°C° 0 mm 2 mps 755 mmHg 64%
    10:00 +24°C° 0 mm 2 mps 755 mmHg 57%
    11:00 +26°C° 0 mm 2 mps 755 mmHg 51%
    12:00 +27°C° 0 mm 2 mps 754 mmHg 48%
    13:00 +27°C° 0 mm 2 mps 754 mmHg 45%
    14:00 +28°C° 0 mm 2 mps 754 mmHg 43%
    15:00 +28°C° 0 mm 1 mps 754 mmHg 44%
    16:00 +27°C° 0 mm 1 mps 753 mmHg 46%
    17:00 +27°C° 0 mm 1 mps 753 mmHg 48%
    18:00 +25°C° 0 mm 1 mps 753 mmHg 54%
    19:00 +23°C° 0 mm 1 mps 753 mmHg 61%
    20:00 +21°C° 0 mm 1 mps 753 mmHg 67%
    21:00 +20°C° 0 mm 1 mps 753 mmHg 69%
    22:00 +19°C° 0 mm 1 mps 753 mmHg 70%
    23:00 +19°C° 0 mm 1 mps 753 mmHg 71%

    27 August, Tuesday

    Time Temperature Precipitation Wind Pressure Humidity
    00:00 +18°C° 0 mm 1 mps 753 mmHg 72%
    01:00 +18°C° 0 mm 1 mps 753 mmHg 73%
    02:00 +16°C° 0 mm 1 mps 753 mmHg 75%
    03:00 +16°C° 0 mm 1 mps 753 mmHg 76%
    04:00 +15°C° 0 mm 1 mps 753 mmHg 77%
    05:00 +15°C° 0 mm 1 mps 753 mmHg 79%
    06:00 +18°C° 0 mm 1 mps 753 mmHg 73%
    07:00 +20°C° 0 mm 1 mps 753 mmHg 67%
    08:00 +21°C° 0 mm 1 mps 753 mmHg 62%
    09:00 +23°C° 0 mm 1 mps 753 mmHg 57%
    10:00 +25°C° 0 mm 1 mps 753 mmHg 52%
    11:00 +26°C° 0 mm 1 mps 753 mmHg 47%
    12:00 +27°C° 0 mm 1 mps 753 mmHg 44%
    13:00 +28°C° 0 mm 1 mps 753 mmHg 41%
    14:00 +28°C° 0 mm 1 mps 753 mmHg 39%
    15:00 +28°C° 0 mm 2 mps 753 mmHg 41%
    16:00 +28°C° 0 mm 2 mps 752 mmHg 43%
    17:00 +27°C° 0 mm 2 mps 752 mmHg 46%
    18:00 +25°C° 0 mm 1 mps 752 mmHg 53%
    19:00 +23°C° 0 mm 1 mps 752 mmHg 60%
    20:00 +21°C° 0 mm 1 mps 752 mmHg 67%
    21:00 +20°C° 0 mm 1 mps 752 mmHg 70%
    22:00 +19°C° 0 mm 1 mps 753 mmHg 74%
    23:00 +19°C° 0 mm 1 mps 753 mmHg 78%

    28 August, Wednesday

    Time Temperature Precipitation Wind Pressure Humidity
    00:00 +18°C° 0 mm 1 mps 753 mmHg 80%
    01:00 +18°C° 0 mm 1 mps 753 mmHg 83%
    02:00 +16°C° 0 mm 0 mps 753 mmHg 85%
    03:00 +18°C° 0 mm 1 mps 753 mmHg 87%
    04:00 +16°C° 0 mm 1 mps 753 mmHg 89%
    05:00 +16°C° 0 mm 1 mps 753 mmHg 91%
    06:00 +19°C° 0 mm 1 mps 753 mmHg 85%
    07:00 +20°C° 0 mm 1 mps 753 mmHg 79%
    08:00 +22°C° 0 mm 1 mps 753 mmHg 73%
    09:00 +23°C° 0 mm 1 mps 753 mmHg 66%
    10:00 +25°C° 0 mm 2 mps 753 mmHg 59%
    11:00 +26°C° 0 mm 2 mps 753 mmHg 52%
    12:00 +27°C° 0 mm 2 mps 753 mmHg 49%
    13:00 +27°C° 0 mm 2 mps 753 mmHg 45%
    14:00 +28°C° 0 mm 2 mps 753 mmHg 41%
    15:00 +28°C° 0 mm 2 mps 752 mmHg 44%
    16:00 +27°C° 0 mm 2 mps 752 mmHg 46%
    17:00 +27°C° 0 mm 2 mps 752 mmHg 48%
    18:00 +24°C° 0 mm 2 mps 752 mmHg 54%
    19:00 +21°C° 0 mm 3 mps 752 mmHg 61%
    20:00 +19°C° 0 mm 3 mps 752 mmHg 68%
    21:00 +18°C° 0 mm 3 mps 753 mmHg 69%
    22:00 +17°C° 0 mm 3 mps 753 mmHg 70%
    23:00 +16°C° 0 mm 3 mps 753 mmHg 71%
    Show more